GFSFLT1_925_temp_057.txt.gz
Temp
26 27 24 30 30 30 29 27 25 25 24 24 24 25 25 25 26 26 27 26 26 27 26 26 26 26 25 25 25 24 24 25 25
26 25 24 23 30 30 30 28 26 25 24 24 23 24 25 25 25 26 26 27 27 27 27 27 26 26 26 25 25 25 24 25 25
26 25 24 23 22 26 29 29 27 26 24 24 23 23 24 24 25 25 26 27 27 27 28 28 27 26 26 25 25 25 25 25 25
27 26 24 21 23 24 23 29 29 27 25 24 23 23 23 23 24 25 25 26 27 27 27 27 28 26 26 25 25 25 25 25 25
27 25 24 23 24 23 22 26 30 28 26 24 24 23 24 23 23 24 24 25 27 27 27 27 26 27 26 26 25 25 25 25 25
28 25 23 22 23 24 23 25 29 30 28 25 24 24 23 23 23 23 24 24 26 27 27 27 27 26 26 26 26 26 25 25 25
26 25 23 23 23 24 25 26 26 30 29 28 25 24 24 24 23 23 23 24 25 25 27 27 27 26 26 26 26 26 25 25 25
27 26 22 22 22 23 22 24 26 27 30 29 27 25 24 24 24 24 23 23 24 25 25 26 26 26 26 26 26 26 25 25 25
26 26 26 26 25 26 22 27 30 27 26 29 29 27 25 25 24 24 24 24 24 24 25 25 26 25 25 25 25 25 25 25 25
24 25 25 24 23 25 23 22 27 26 27 30 29 28 26 26 25 24 24 24 24 24 24 24 24 24 24 25 25 25 25 25 25
23 22 23 22 21 23 24 22 24 24 24 26 29 28 27 26 25 25 24 24 24 24 24 24 24 24 24 24 24 25 25 25 25
20 19 21 21 22 23 24 22 22 20 20 21 23 28 28 26 26 25 25 24 24 24 24 24 24 24 24 24 24 25 25 25 26
19 17 18 21 24 23 24 24 21 20 19 22 22 22 28 27 26 26 25 25 25 24 24 25 24 24 24 24 24 24 25 25 25
17 18 19 22 22 22 23 23 24 21 22 21 25 28 28 27 27 26 26 25 25 25 25 25 25 24 24 24 24 24 25 25 25
17 17 18 20 19 20 20 21 20 21 22 25 28 29 29 28 27 27 26 25 25 25 25 25 25 24 24 24 24 25 24 25 25
14 18 18 17 17 17 19 19 19 20 22 23 27 28 29 28 27 27 27 25 25 25 25 25 25 25 25 25 25 25 25 25 25
16 16 15 15 16 17 17 16 16 18 19 22 23 27 29 28 27 27 28 26 25 25 25 25 25 25 25 25 25 25 25 25 25
14 14 14 14 14 14 14 14 15 16 17 18 21 23 27 27 28 27 27 27 26 26 26 26 25 26 25 26 26 26 26 25 25
14 14 13 13 13 13 13 13 13 14 16 16 18 20 25 27 28 27 27 27 25 26 26 26 26 26 26 26 27 26 26 27 27
13 13 13 12 12 11 12 12 12 13 13 15 17 19 23 27 28 27 27 26 25 22 22 25 26 26 26 27 26 27 28 27 28

GFSFLT1_925_temp_060.txt.gz
Temp
26 26 24 26 28 27 26 25 24 23 23 24 24 25 25 26 26 25 25 25 26 25 25 26 25 25 25 25 25 25 24 24 24
24 25 25 26 29 29 26 25 25 24 23 23 24 25 25 25 26 25 25 25 26 26 26 26 25 25 25 25 24 25 25 24 24
26 25 25 25 28 29 26 25 25 24 24 23 24 24 24 25 25 25 26 26 25 25 26 26 26 25 25 25 25 24 24 25 25
27 25 24 23 26 27 26 25 25 24 24 24 23 23 23 24 24 25 25 26 26 26 26 26 26 26 26 25 25 24 24 24 25
25 24 24 25 25 24 27 27 25 25 24 24 23 23 23 23 24 25 25 25 26 26 26 26 26 27 26 25 25 25 24 24 24
25 23 24 22 22 22 24 25 27 26 25 24 24 23 23 23 23 23 24 24 25 26 26 26 26 26 27 26 25 25 25 25 25
22 20 21 20 22 23 24 25 24 26 26 24 24 24 23 23 23 23 23 24 24 25 25 26 26 26 26 26 26 25 25 25 25
23 21 22 22 22 25 24 23 26 25 26 26 24 23 23 23 23 23 23 23 23 24 25 25 26 26 26 26 26 25 25 25 25
21 20 21 25 22 23 22 23 24 24 26 26 24 24 24 23 23 23 22 22 23 23 24 24 25 26 26 25 26 26 25 25 25
19 19 20 19 19 21 21 21 22 24 24 25 25 24 24 24 23 23 23 22 22 22 23 23 23 24 25 25 25 25 25 25 25
17 19 17 17 19 19 22 20 19 22 23 26 25 25 25 24 24 23 23 23 22 22 22 22 23 23 24 24 25 25 25 25 25
16 17 17 17 17 20 21 23 21 19 23 24 22 25 24 24 24 23 23 23 23 23 22 22 22 23 23 23 23 24 25 25 25
15 15 16 17 18 19 21 22 22 23 24 22 23 24 25 25 24 24 24 23 23 23 23 23 22 23 23 23 23 23 24 24 24
14 14 16 16 17 19 20 21 20 21 22 20 21 21 23 25 24 24 24 24 23 23 23 23 23 23 23 23 23 23 23 24 24
12 13 15 16 17 18 18 20 19 20 19 22 23 23 23 24 22 24 25 24 24 24 23 23 23 23 23 23 23 23 23 24 24
11 12 13 15 16 16 17 18 19 17 19 20 21 21 21 21 24 24 25 25 24 24 24 24 23 24 23 23 23 23 23 24 24
10 11 12 14 15 15 15 16 16 16 16 18 19 22 20 21 24 24 25 26 24 24 24 24 24 24 24 24 24 23 23 23 23
10 11 13 14 15 14 14 15 14 15 15 15 15 16 18 20 24 26 24 25 24 24 25 25 25 25 24 24 24 24 24 24 23
9 11 13 13 13 14 14 14 14 13 14 14 13 14 16 19 22 25 25 25 25 25 25 25 25 25 25 25 25 25 24 25 24
10 11 13 13 12 12 12 13 14 12 13 14 13 13 15 17 20 24 25 26 24 22 23 25 25 25 25 25 25 25 25 25 25

GFSFLT1_925_temp_063.txt.gz
Temp
26 24 24 26 25 25 25 24 23 23 22 23 24 25 25 26 26 25 25 25 25 25 25 25 25 24 24 24 24 24 24 25 25
24 25 25 26 26 25 25 24 24 23 23 23 24 25 25 25 26 25 25 25 25 25 25 25 25 25 25 24 24 24 24 24 24
25 25 25 24 26 26 25 25 24 23 23 23 25 25 25 26 26 26 25 25 25 25 25 25 25 25 25 24 24 24 24 24 24
25 24 23 23 25 27 25 25 24 24 23 23 23 23 25 25 25 26 26 25 25 25 25 25 24 25 25 25 24 24 24 24 24
24 24 24 22 22 22 23 24 24 24 23 23 23 23 24 24 25 25 25 26 25 25 25 25 25 25 25 25 25 25 24 24 24
21 21 20 20 19 19 21 23 24 23 23 23 23 22 22 23 23 24 25 25 26 25 25 25 25 25 25 25 25 25 25 24 24
20 20 19 18 18 19 22 23 24 25 24 23 23 22 22 22 23 23 25 25 25 26 26 25 25 25 25 25 26 25 25 25 24
19 19 18 17 17 18 21 21 21 23 24 24 23 23 22 22 22 23 23 24 25 26 26 26 26 25 25 25 25 25 25 25 25
17 18 18 17 17 16 19 19 20 21 23 25 24 23 23 22 22 22 22 23 24 24 25 25 25 25 25 25 25 25 26 26 25
15 16 16 16 16 16 15 18 20 20 21 22 24 23 22 22 22 22 22 23 23 23 23 23 23 25 25 25 25 25 25 25 25
14 14 14 16 17 17 16 18 19 21 20 21 22 23 23 23 22 22 22 22 22 22 22 23 23 22 23 24 24 25 26 26 25
12 13 14 15 16 16 16 18 20 20 20 20 21 22 23 23 23 22 22 21 21 21 22 22 22 22 22 22 23 23 25 25 24
11 12 13 14 14 15 17 18 19 19 19 20 21 21 22 22 23 23 22 22 22 22 21 22 22 21 22 23 22 23 23 24 24
10 11 12 13 14 15 17 18 18 18 18 19 20 19 20 21 23 22 22 22 22 22 22 22 21 21 21 22 22 22 23 23 23
9 10 11 12 13 14 16 18 16 17 17 18 19 19 19 21 21 22 23 23 22 22 22 21 22 22 22 21 22 22 23 23 23
9 9 10 10 11 12 15 16 18 16 17 18 17 17 19 19 20 20 21 23 23 23 22 22 22 22 22 22 22 22 22 23 23
8 9 9 10 10 11 13 15 17 18 17 17 16 16 16 17 18 19 20 21 23 23 23 23 23 23 23 23 23 22 22 22 22
10 9 10 10 10 11 12 14 15 17 17 16 15 15 15 15 17 18 20 21 24 24 24 23 23 24 23 23 23 23 23 23 23
8 9 8 9 9 10 12 13 14 15 17 15 14 13 15 15 15 17 19 21 22 24 24 24 24 24 24 24 24 24 24 23 23
8 8 8 7 9 10 12 13 12 13 13 14 15 12 14 15 15 15 17 19 21 22 22 23 24 24 24 24 24 24 24 24 24

GFSFLT1_925_temp_069.txt.gz
Temp
28 27 28 28 27 27 26 25 24 23 22 22 22 22 22 23 22 23 24 24 24 24 24 24 24 24 24 24 24 23 24 23 23
27 27 28 28 27 27 26 25 24 24 23 22 22 22 22 22 22 22 23 24 24 24 25 24 24 25 24 24 24 24 24 23 23
25 27 27 28 28 26 26 26 25 24 23 23 23 23 22 22 22 22 22 23 24 24 25 25 24 24 24 24 24 24 24 23 23
22 25 26 27 27 26 26 26 25 24 24 23 23 22 23 23 22 22 22 22 24 24 25 25 25 25 24 24 24 23 24 23 23
19 20 21 22 24 24 25 24 25 25 25 24 23 23 22 22 23 23 22 22 23 24 25 25 25 25 24 23 24 23 23 24 23
17 17 18 19 18 17 20 23 24 24 24 24 23 22 22 22 23 23 22 22 24 24 24 24 24 25 24 24 24 24 25 24 24
16 16 16 16 16 16 15 16 18 21 22 24 24 23 22 22 22 22 23 23 23 24 25 24 23 24 25 24 24 24 24 24 23
17 16 15 15 15 15 15 14 15 17 19 19 22 24 23 23 22 22 23 23 23 23 23 24 25 23 23 24 24 24 23 23 23
17 16 16 14 14 14 14 13 13 15 18 18 18 20 22 23 23 22 22 22 23 22 22 23 23 22 23 23 24 25 25 25 24
15 15 15 15 14 13 13 13 13 14 16 17 18 19 20 22 22 22 22 22 22 22 22 22 22 22 22 23 23 24 25 26 25
14 13 13 14 14 13 13 12 13 14 15 16 17 19 20 21 22 22 22 21 21 21 22 21 22 22 22 22 23 24 25 25 25
13 13 12 12 12 12 12 13 13 13 14 15 17 18 20 20 22 22 22 22 22 21 21 21 22 22 22 21 23 24 25 25 23
12 11 11 11 12 12 13 13 12 12 12 14 16 17 18 19 19 20 21 21 21 22 21 21 22 22 22 22 22 23 25 24 23
11 11 10 11 11 12 12 12 12 12 11 12 15 16 17 18 19 19 20 20 21 21 21 22 22 22 22 21 21 22 23 24 22
11 10 10 10 11 12 12 11 11 12 12 11 13 14 16 18 17 18 20 20 20 21 21 21 21 21 22 22 21 21 22 24 23
10 10 10 10 11 11 11 11 11 11 12 11 11 13 16 16 17 17 18 19 20 20 20 21 21 22 22 23 23 22 21 22 24
9 8 8 9 9 10 11 10 10 11 11 11 11 12 14 15 16 17 17 18 20 21 22 21 21 22 22 23 24 24 23 22 21
8 7 7 7 8 9 10 10 10 10 10 11 11 11 13 14 15 16 17 17 18 20 20 21 23 23 23 24 24 24 24 23 23
7 7 7 7 7 8 8 9 9 9 9 10 10 11 12 14 14 15 15 17 17 18 19 20 20 20 22 24 23 23 23 22 22
7 7 7 7 6 6 6 7 8 8 9 9 10 11 12 12 13 13 14 16 18 19 21 20 21 21 21 21 22 22 23 22 22

GFSFLT1_925_temp_072.txt.gz
Temp
32 32 33 32 31 30 29 29 28 27 26 24 24 24 24 24 24 25 25 25 27 27 27 27 25 24 24 24 24 24 24 24 25
31 32 32 32 31 30 30 29 28 27 27 25 25 25 24 24 24 24 26 26 25 26 26 27 25 25 24 24 24 24 23 25 24
28 30 31 32 31 30 29 29 28 27 27 26 25 25 25 25 24 24 24 24 24 25 26 25 26 25 25 24 24 24 24 25 24
21 21 23 23 26 29 29 29 29 28 27 27 26 26 26 25 25 25 24 24 24 24 25 25 25 25 25 25 25 24 24 25 26
19 19 19 19 17 16 21 28 28 28 28 28 27 27 26 25 25 25 25 24 25 24 24 25 25 24 25 25 25 25 24 24 26
18 18 18 17 16 14 14 17 19 26 28 28 28 26 25 24 25 25 25 25 25 24 24 24 25 25 24 25 25 25 25 25 25
17 17 17 17 15 14 13 14 15 18 22 25 27 27 26 25 24 24 25 25 25 25 24 24 25 25 25 25 25 25 25 25 25
18 17 17 17 16 15 14 13 13 14 17 19 21 22 26 26 24 24 24 25 25 24 24 24 24 25 25 25 25 26 26 26 25
20 19 17 17 17 16 15 15 13 13 14 17 18 20 22 23 25 25 24 23 23 24 24 24 24 24 25 25 26 26 26 25 26
19 18 18 19 17 16 15 15 16 15 14 16 17 17 20 21 22 24 24 24 24 23 23 24 24 24 25 25 25 26 26 25 25
18 18 17 17 18 17 16 15 14 14 14 15 16 16 17 19 22 23 23 23 23 23 23 24 24 24 24 24 25 25 25 25 24
17 17 17 16 16 16 16 17 16 15 14 13 14 15 16 17 17 21 22 23 23 23 23 23 24 24 24 24 24 24 24 24 24
17 16 15 15 15 15 16 16 16 16 17 15 13 13 14 16 17 17 20 21 22 22 22 22 23 24 24 24 24 23 23 24 24
15 15 14 14 14 15 15 15 15 15 16 16 15 13 13 14 17 18 19 19 21 21 21 21 23 23 24 24 24 23 23 22 23
14 14 13 13 13 14 14 14 14 15 15 14 14 14 13 12 15 18 18 19 19 20 21 21 22 22 23 24 24 24 23 22 22
13 12 12 11 11 11 12 13 13 13 14 13 13 13 14 14 13 16 18 18 19 19 21 22 21 22 24 25 25 26 24 23 22
13 12 11 10 10 10 10 11 12 12 13 13 13 13 14 15 15 15 17 18 21 21 20 24 25 24 22 24 25 25 27 25 23
13 12 11 10 10 9 9 10 10 10 11 11 12 13 13 15 16 16 18 18 20 21 21 21 24 25 25 24 25 26 27 27 28
11 11 10 9 10 9 8 9 9 9 9 9 10 11 13 15 16 17 18 19 19 20 20 20 20 21 20 21 24 24 25 25 24
11 11 10 9 8 7 8 8 7 8 8 8 8 9 10 12 12 15 17 17 18 19 21 21 21 21 21 21 21 22 23 23 23

GFSFLT1_925_temp_075.txt.gz
Temp
33 33 32 32 32 29 29 30 30 30 27 26 25 25 25 25 25 26 26 26 27 27 25 24 26 25 24 25 24 25 25 25 25
34 33 31 32 32 31 29 30 30 30 28 27 26 26 25 25 25 25 27 27 26 27 27 26 26 26 25 25 26 25 25 25 26
26 23 21 20 24 29 30 30 30 30 29 27 27 27 26 26 25 25 25 26 26 27 27 27 25 26 26 26 25 25 25 26 25
23 20 20 20 18 18 21 22 29 30 29 29 27 27 27 27 26 26 25 26 26 26 26 26 26 26 26 26 26 25 25 25 27
20 19 16 17 16 16 15 17 18 23 30 30 29 28 28 27 27 27 27 26 26 25 25 26 26 26 25 26 26 26 25 25 27
18 19 19 16 16 14 13 14 18 19 22 25 30 29 29 28 28 27 27 27 26 26 25 25 26 26 25 26 26 26 26 26 25
19 18 18 17 15 15 14 13 13 16 18 20 22 24 29 28 27 27 26 26 26 26 25 25 25 26 26 26 26 26 25 25 25
19 18 18 18 18 16 15 14 13 12 15 17 18 19 23 24 27 26 25 26 26 26 26 25 25 25 26 26 26 27 26 26 26
20 19 20 19 18 17 17 16 16 15 15 16 16 17 19 22 24 24 25 25 25 26 26 25 25 25 25 26 26 28 27 27 27
21 21 20 21 20 19 18 18 17 17 16 15 16 16 17 18 20 23 24 24 25 25 25 25 25 25 25 25 25 26 27 27 27
21 21 21 21 21 20 18 18 17 17 18 17 16 16 15 16 17 19 21 23 23 23 24 24 24 25 25 25 25 25 26 26 26
20 20 20 19 19 19 19 19 18 18 18 17 16 16 15 15 15 17 18 19 21 23 24 24 24 24 25 25 25 25 25 25 25
19 19 18 18 18 18 19 18 18 18 19 18 19 17 16 15 14 15 18 19 19 19 22 24 24 25 24 25 25 25 24 24 25
18 17 17 16 17 17 17 17 17 17 17 18 17 16 17 16 16 15 17 19 19 19 19 21 23 23 23 24 24 25 24 24 24
17 17 16 15 15 15 15 15 15 16 16 16 16 15 15 16 16 16 17 17 18 19 20 20 22 22 22 23 23 25 25 24 24
17 16 15 15 14 14 14 13 13 14 14 14 14 15 15 15 15 16 17 16 18 20 21 21 21 22 22 23 23 24 25 25 25
16 16 15 14 13 14 13 13 13 12 13 13 13 13 14 14 16 16 17 18 17 19 23 24 24 23 23 23 23 23 25 26 24
15 15 14 13 12 12 12 12 11 12 12 11 12 12 13 14 15 17 18 19 20 20 21 22 22 24 23 22 19 23 24 23 21
14 14 14 12 12 11 12 11 11 11 10 10 10 11 12 13 14 16 18 19 20 21 21 20 20 21 21 21 21 21 21 21 21
14 15 13 12 11 11 10 10 10 10 9 8 8 9 10 10 11 13 16 17 18 20 21 21 21 21 21 22 22 22 23 22 22